Regional Weather Roundup
Issued by NWS

Home | Current Version | Previous Version | Graphics & Text | Print | Product List | Glossary On
Versions: 1 2 3 4 5 6 7 8 9 10 11 12 13 14 15 16 17 18 19 20 21 22 23 24 25 26 27 28 29 30 31 32 33 34 35 36 37 38 39 40 41 42 43 44 45 46 47 48 49 50
744
ASUS43 KTOP 290308
RWRKS

WEATHER ROUNDUP FOR KANSAS
NATIONAL WEATHER SERVICE GOODLAND KS
1000 PM CDT SUN AUG 28 2016

NOTE:  "FAIR" INDICATES FEW OR NO CLOUDS BELOW 12,000 FEET WITH NO
SIGNIFICANT WEATHER AND/OR OBSTRUCTIONS TO VISIBILITY.

KSZ001>006-013>018-027>032-041>047-290400-
NORTHWEST KANSAS

CITY           SKY/WX    TMP DP  RH WIND       PRES   REMARKS
GOODLAND       CLOUDY    67  59  75 SE3       30.13R
HAYS           CLOUDY    72  57  60 SW3       30.11R
HILL CITY      PTCLDY    74  65  73 S5        30.11R
RUSSELL        CLOUDY    70  65  84 SW7       30.09R
$$

KSZ061>065-074>080-084>089-290400-
SOUTHWEST KANSAS

CITY           SKY/WX    TMP DP  RH WIND       PRES   REMARKS
DODGE CITY     CLOUDY    68  63  84 S8        30.13R
ELKHART          N/A     67  58  73 SE13        N/A
GARDEN CITY    PTCLDY    70  61  73 SE10      30.13R
GREAT BEND     CLOUDY    72  61  68 CALM      30.10R
LIBERAL        CLOUDY    70  57  64 S8        30.15R
PRATT          CLOUDY    69  62  80 S10       30.11R
$$

KSZ066>073-081>083-090>101-290400-
SOUTHEAST KANSAS

CITY           SKY/WX    TMP DP  RH WIND       PRES   REMARKS
CHANUTE        CLEAR     78  69  73 E6        30.10R
COFFEYVILLE    PTCLDY    79  67  66 S5        30.09R
HUTCHINSON     CLOUDY    71  68  90 E5        30.08F
MEDICINE LODGE   N/A     68  66  93 SE6       30.07S
NEWTON         PTCLDY    73  69  87 E6        30.10S
PARSONS        CLEAR     76  72  87 CALM      30.11R
WICHITA INTL   MOCLDY    76  68  76 SE7       30.08S
WICHITA JABRA  MOCLDY    74  70  87 SE5       30.09S
WICHITA MCCONL PTCLDY    77  69  74 SE5       30.09S
WINFIELD       CLOUDY    78  71  79 E5        30.10R
$$

KSZ007>012-019>026-033>040-048>060-102>105-290400-
NORTHEAST KANSAS

CITY           SKY/WX    TMP DP  RH WIND       PRES   REMARKS
CONCORDIA      MOCLDY    77  69  76 E5        30.11R
EMPORIA        PTCLDY    73  69  87 E5        30.12R
LAWRENCE       CLOUDY    77  70  79 NE12G17   30.14R
MANHATTAN      CLOUDY    76  70  82 E5        30.10R
MARYSVILLE     CLOUDY    72  70  94 SE9       30.14R
OLATHE IND     PTCLDY    77  70  79 NE9       30.15R
OLATHE EXE     PTCLDY    76  67  73 NE10      30.15R
SALINA         CLOUDY    78  70  76 SE8       30.09R
TOPEKA BILLARD PTCLDY    77  73  87 CALM      30.12R
TOPEKA FORBES  MOCLDY    79  72  79 CALM      30.12R
$$




USA.gov is the U.S. government's official web portal to all federal, state and local government web resources and services.